Regional Weather Roundup
Issued by NWS

Home | Current Version | Previous Version | Graphics & Text | Print | Product List | Glossary On
Versions: 1 2 3 4 5 6 7 8 9 10 11 12 13 14 15 16 17 18 19 20 21 22 23 24 25 26 27 28 29 30 31 32 33 34 35 36 37 38 39 40 41 42 43 44 45 46 47 48 49 50
000
ASUS45 KBOU 300407
RWRCO

WEATHER ROUNDUP FOR COLORADO
NATIONAL WEATHER SERVICE DENVER/BOULDER CO
1000 PM MDT FRI APR 29 2016

NOTE: "FAIR" INDICATES FEW OR NO CLOUDS BELOW 12000 FEET WITH NO
SIGNIFICANT WEATHER AND/OR OBSTRUCTIONS TO VISIBILITY.

COZ001>005-013-030-031-300500-
...NORTHWEST COLORADO...

CITY           SKY/WX    TMP DP  RH WIND       PRES   REMARKS
CRAIG          FAIR      39  30  70 W8        29.85R
HAYDEN         FAIR      36  30  80 SW5       29.83S
MEEKER         MOCLDY    38  35  89 W5        29.85R
MOUNT WERNER   NOT AVBL
STEAMBOAT SPGS CLOUDY    35  33  94 CALM      29.84R
WALDEN         CLOUDY    30  28  93 NW6       29.78S WCI  24
$$

COZ006>008-011-300500-
...WEST CENTRAL VALLEYS...

CITY           SKY/WX    TMP DP  RH WIND       PRES   REMARKS
GRAND JUNCTION CLOUDY    45  41  86 S7        29.83R
MONTROSE       CLOUDY    45  34  65 SW7       29.86R
EAGLE          CLOUDY    37  37 100 CALM      29.86S
RIFLE          LGT RAIN  44  39  82 SW7       29.83R
DELTA          NOT AVBL
NUCLA          NOT AVBL
$$

COZ017>023-064>068-300500-
...SOUTHWEST COLORADO...

CITY           SKY/WX    TMP DP  RH WIND       PRES   REMARKS
DURANGO        FAIR      41  29  62 W16       29.84R
CORTEZ         FAIR      39  36  89 CALM      29.86S
PAGOSA SPRINGS FAIR      33  33 100 CALM      29.87S
TELLURIDE      CLOUDY    34  31  90 CALM      29.91R
WOLF CREEK PAS SNOW      21  21 100 SW17G23   29.94R VSB 1/4 WCI   7
$$

COZ009-010-012-014-032>034-037-058>063-300500-
...CENTRAL COLORADO...

CITY           SKY/WX    TMP DP  RH WIND       PRES   REMARKS
ASPEN          LGT SNOW  33  31  92 NW3       29.83R FOG
BUENA VISTA    LGT SNOW  29  28  95 E5        29.88S WCI  24
COPPER MTN     NOT AVBL
BERTHOUD PASS  LGT SNOW  14   5  67 CALM      29.86S
COTTONWOOD PAS LGT SNOW  30  27  86 CALM      29.88S
GUNNISON       FAIR      36  32  87 CALM      29.85S
KREMMLING      LGT SNOW  34  32  93 N7        29.85R WCI  28
LEADVILLE      LGT SNOW  22  22 100 S9        29.85R FOG     WCI  12
MONARCH PASS   CLOUDY    21  19  93 MISG      29.98S
SALIDA         CLOUDY    32  29  89 SE7       29.96R WCI  26
SUNLIGHT       SNOW     N/A N/A N/A NW3       29.93R VSB 1/4
WILKERSON PASS LGT SNOW N/A N/A N/A E3        29.90S
$$

COZ069>075-300500-
...SAN LUIS VALLEY/SANGRE DE CRISTO MOUNTAINS...

CITY           SKY/WX    TMP DP  RH WIND       PRES   REMARKS
ALAMOSA        CLOUDY    32  31  96 E10       29.86R WCI  24
LA VETA PASS   LGT SNOW  23  21  93 MISG      29.88R
SAGUACHE       MIX PCPN  32  32 100 CALM      29.87R
$$

COZ035-036-038>040-300500-
...NORTHERN COLORADO FRONT RANGE...

CITY           SKY/WX    TMP DP  RH WIND       PRES   REMARKS
DENVER INTL AP LGT SNOW  33  30  88 N3        29.90S VSB 1
DMNS CITY PARK   N/A     33  32  99 MISG      29.91S
AURORA         LGT SNOW  32  32 100 N3        29.91R FOG
FRONT RANGE AP NOT AVBL
ERIE MUNI ARPT LGT RAIN  34  34  99 CALM      29.91S
BOULDER MUN AP LGT RAIN  34  34 100 CALM      29.91S
CENTENNIAL     LGT SNOW  32  31  96 N3        29.90R FOG
BROOMFIELD     LGT SNOW  34  34 100 NW5       29.91R WCI  30
FORT COLLINS   CLOUDY    36  34  93 N6        29.93R
LONGMONT       MIX PCPN  37  35  93 CALM      29.94R
$$

COZ041-046-047-076>085-087-088-300500-
...PIKES PEAK/PALMER DIVIDE AND SOUTHERN FOOTHILLS...

CITY           SKY/WX    TMP DP  RH WIND       PRES   REMARKS
COLO. SPRINGS  LGT SNOW  32  29  88 SW3       29.90R FOG
A. F. ACADEMY  FLURRIES  32  30  93 NW5       29.88S WCI  27
SCHRIEVER AFB  NOT AVBL
ELLICOTT       NOT AVBL
FALCON         FLURRIES  30  28  91 NW5       29.89R WCI  25
FORT CARSON    LGT SNOW  32  32 100 CALM      29.89R VSB 1
LIMON          LGT SNOW  30  29  96 N9        29.89S FOG     WCI  22
MONUMENT HILL  LGT SNOW  28  27  93 NW5       29.90S WCI  23
TRINIDAD       CLOUDY    32  30  92 NW6       29.91R WCI  26
$$

COZ042>045-048>051-090-091-300500-
...NORTHEAST COLORADO...

CITY           SKY/WX    TMP DP  RH WIND       PRES   REMARKS
GREELEY ARPT   CLOUDY    36  34  93 N7        29.93S
AKRON          LGT SNOW  31  30  96 N9        29.90R VSB 1   WCI  23
BURLINGTON     LGT SNOW  33  30  88 NW9       29.87R FOG     WCI  25
WRAY           NOT AVBL
STERLING       LGT SNOW  32  32 100 N5        29.91S WCI  27
HOLYOKE        NOT AVBL
FORT MORGAN    LGT SNOW  32  32  99 N6        29.92S WCI  27
$$

COZ086-089-092>099-300500-
...SOUTHEAST COLORADO...

CITY           SKY/WX    TMP DP  RH WIND       PRES   REMARKS
PUEBLO         CLOUDY    36  33  89 W5        29.91S
LA JUNTA       LGT RAIN  37  35  92 NW7       29.91S
LAMAR          CLOUDY    37  35  92 N10       29.87S
SPRINGFIELD      N/A     35  35 100 N13       29.86S WCI  26
$$



USA.gov is the U.S. government's official web portal to all federal, state and local government web resources and services.